Location: Chandolas
(44.4033°N, 4.2533°E)
Time: 09:41:15
(UTC+00:00)

Cosmos 2369 - Pass Details

Date: 29 February 2020
Orbit: 841 x 855 km, 71.0° (Epoch: 07 April)

Event Time Altitude Azimuth Distance (km) Brightness Sun altitude
Rises 04:25:05 0° 342° (NNW) 3,420 6.8 -21.5°
Reaches altitude 10° 04:28:02 10° 356° (N) 2,478 6.2 -21.0°
Maximum altitude 04:32:35 24° 49° (NE) 1,681 5.9 -20.2°
Drops below altitude 10° 04:37:06 10° 103° (ESE) 2,460 7.1 -19.4°
Sets 04:40:01 0° 117° (ESE) 3,390 7.8 -18.9°
